,,Stat5,,Stat1,,Stat2,,Stat3,,Stat4,,Wind1,,Wind1,
time,status,PA1M_AVG,status,PR1M_SUM,status,RH1M_AVG,status,SR1M_AVG,status,TA1M_AVG,status,W1dAve1m,status,W1sAve1m,
2001-05-28, 00:00:00,VALID,917.673,VALID,0,VALID,98.1208,VALID,0,VALID,20.1522,VALID,38,VALID,0.0690789,
2001-05-28, 00:01:00,VALID,917.663,VALID,0,VALID,98.0789,VALID,-0.0169808,VALID,20.1358,VALID,38,VALID,0,
2001-05-28, 00:02:00,VALID,917.671,VALID,0,VALID,98.0077,VALID,0,VALID,20.1204,VALID,38,VALID,0,
2001-05-28, 00:03:00,VALID,917.658,VALID,0,VALID,98.0433,VALID,0,VALID,20.1258,VALID,308,VALID,0.000801282,
2001-05-28, 00:04:00,VALID,917.654,VALID,0,VALID,98.0636,VALID,0,VALID,20.1229,VALID,292,VALID,0,
2001-05-28, 00:05:00,VALID,917.663,VALID,0,VALID,98.0051,VALID,0,VALID,20.1266,VALID,275,VALID,0.329603,
2001-05-28, 00:06:00,VALID,917.665,VALID,0,VALID,98.0623,VALID,0,VALID,20.1492,VALID,242,VALID,0.213605,
2001-05-28, 00:07:00,VALID,917.622,VALID,0,VALID,98.028,VALID,0,VALID,20.1619,VALID,136,VALID,0.122461,
2001-05-28, 00:08:00,VALID,917.604,VALID,0,VALID,97.9275,VALID,-0.0169808,VALID,20.1589,VALID,42,VALID,0.0967548,
2001-05-28, 00:09:00,VALID,917.573,VALID,0,VALID,97.8741,VALID,0.0169808,VALID,20.1616,VALID,263,VALID,0.203125,
2001-05-28, 00:10:00,VALID,917.556,VALID,0,VALID,97.457,VALID,0,VALID,20.1363,VALID,259,VALID,0.0101562,
2001-05-28, 00:11:00,VALID,917.524,VALID,0,VALID,97.3388,VALID,0,VALID,20.1,VALID,355,VALID,0.140842,
2001-05-28, 00:12:00,VALID,917.518,VALID,0,VALID,97.2561,VALID,0,VALID,20.1107,VALID,30,VALID,0.454861,
2001-05-28, 00:13:00,VALID,917.527,VALID,0,VALID,97.1112,VALID,-0.0169808,VALID,20.094,VALID,14,VALID,0.326322,
2001-05-28, 00:14:00,VALID,917.521,VALID,0,VALID,96.8734,VALID,-0.0169808,VALID,20.0647,VALID,16,VALID,0.238281,
2001-05-28, 00:15:00,VALID,917.552,VALID,0,VALID,96.7284,VALID,0,VALID,20.0491,VALID,12,VALID,0.0442023,
2001-05-28, 00:16:00,VALID,917.557,VALID,0,VALID,96.7717,VALID,-0.0169808,VALID,20.0523,VALID,323,VALID,0.0772804,
2001-05-28, 00:17:00,VALID,917.585,VALID,0,VALID,97.2294,VALID,-0.0339617,VALID,20.1134,VALID,340,VALID,0.406901,
2001-05-28, 00:18:00,VALID,917.581,VALID,0,VALID,97.3324,VALID,-0.0169808,VALID,20.1427,VALID,21,VALID,0.867821,
2001-05-28, 00:19:00,VALID,917.559,VALID,0,VALID,97.3668,VALID,0,VALID,20.1522,VALID,22,VALID,0.985609,
2001-05-28, 00:20:00,VALID,917.549,VALID,0,VALID,97.321,VALID,-0.0339617,VALID,20.2111,VALID,15,VALID,0.865385,
2001-05-28, 00:21:00,VALID,917.56,VALID,0,VALID,96.7602,VALID,-0.0169808,VALID,20.1944,VALID,11,VALID,0.967147,
2001-05-28, 00:22:00,VALID,917.558,VALID,0,VALID,96.8734,VALID,-0.0169808,VALID,20.1977,VALID,353,VALID,0.804476,
2001-05-28, 00:23:00,VALID,917.516,VALID,0,VALID,96.9827,VALID,-0.0169808,VALID,20.2238,VALID,1,VALID,0.693462,
2001-05-28, 00:24:00,VALID,917.492,VALID,0,VALID,96.8836,VALID,-0.0169808,VALID,20.2367,VALID,352,VALID,0.79988,
2001-05-28, 00:25:00,VALID,917.446,VALID,0,VALID,96.8607,VALID,-0.0169808,VALID,20.2397,VALID,358,VALID,0.869391,
2001-05-28, 00:26:00,VALID,917.424,VALID,0,VALID,96.8925,VALID,0,VALID,20.262,VALID,6,VALID,0.753447,
2001-05-28, 00:27:00,VALID,917.384,VALID,0,VALID,96.8123,VALID,-0.0169808,VALID,20.2585,VALID,16,VALID,1.30078,
2001-05-28, 00:28:00,VALID,917.349,VALID,0,VALID,96.7271,VALID,-0.0169808,VALID,20.2488,VALID,19,VALID,1.65604,
2001-05-28, 00:29:00,VALID,917.347,VALID,0,VALID,96.6966,VALID,0,VALID,20.223,VALID,11,VALID,1.35742,
2001-05-28, 00:30:00,VALID,917.356,VALID,0,VALID,96.5924,VALID,0,VALID,20.1972,VALID,1,VALID,0.969401,
2001-05-28, 00:31:00,VALID,917.358,VALID,0,VALID,96.5402,VALID,0,VALID,20.2173,VALID,32,VALID,1.01316,
2001-05-28, 00:32:00,VALID,917.382,VALID,0,VALID,96.4652,VALID,0,VALID,20.1977,VALID,355,VALID,0.816723,
2001-05-28, 00:33:00,VALID,917.393,VALID,0,VALID,96.5733,VALID,0,VALID,20.1937,VALID,303,VALID,0.273438,
2001-05-28, 00:34:00,VALID,917.398,VALID,0,VALID,96.6381,VALID,0.0169808,VALID,20.2001,VALID,312,VALID,0.12567,
2001-05-28, 00:35:00,VALID,917.395,VALID,0,VALID,96.8416,VALID,0.0169808,VALID,20.2136,VALID,350,VALID,0.598273,
2001-05-28, 00:36:00,VALID,917.392,VALID,0,VALID,96.9204,VALID,0,VALID,20.2391,VALID,357,VALID,1.23117,
2001-05-28, 00:37:00,VALID,917.393,VALID,0,VALID,96.7704,VALID,0.0169808,VALID,20.2297,VALID,17,VALID,1.36074,
2001-05-28, 00:38:00,VALID,917.402,VALID,0,VALID,96.5211,VALID,0.0169808,VALID,20.2039,VALID,11,VALID,1.36451,
2001-05-28, 00:39:00,VALID,917.396,VALID,0,VALID,96.422,VALID,0,VALID,20.2076,VALID,13,VALID,1.07939,
2001-05-28, 00:40:00,VALID,917.41,VALID,0,VALID,96.455,VALID,0,VALID,20.1977,VALID,353,VALID,1.1847,
2001-05-28, 00:41:00,VALID,917.402,VALID,0,VALID,96.5796,VALID,0,VALID,20.2066,VALID,9,VALID,1.42268,
2001-05-28, 00:42:00,VALID,917.4,VALID,0,VALID,96.6776,VALID,0,VALID,20.2138,VALID,11,VALID,1.8129,
2001-05-28, 00:43:00,VALID,917.395,VALID,0,VALID,96.5809,VALID,0.0169808,VALID,20.2031,VALID,14,VALID,1.13661,
2001-05-28, 00:44:00,VALID,917.397,VALID,0,VALID,96.483,VALID,0,VALID,20.1579,VALID,1,VALID,1.11152,
2001-05-28, 00:45:00,VALID,917.385,VALID,0,VALID,96.6369,VALID,0.0169808,VALID,20.1609,VALID,13,VALID,1.5293,
2001-05-28, 00:46:00,VALID,917.383,VALID,0,VALID,96.5466,VALID,0,VALID,20.1519,VALID,10,VALID,1.43229,
2001-05-28, 00:47:00,VALID,917.388,VALID,0,VALID,96.5084,VALID,0.0169808,VALID,20.1748,VALID,11,VALID,1.56039,
2001-05-28, 00:48:00,VALID,917.404,VALID,0,VALID,96.1931,VALID,0.0169808,VALID,20.2128,VALID,3,VALID,1.61308,
2001-05-28, 00:49:00,VALID,917.408,VALID,0,VALID,95.5204,VALID,0,VALID,20.3043,VALID,15,VALID,1.57264,
2001-05-28, 00:50:00,VALID,917.405,VALID,0,VALID,94.9812,VALID,0,VALID,20.3425,VALID,357,VALID,1.14928,
2001-05-28, 00:51:00,VALID,917.416,VALID,0,VALID,94.8592,VALID,0.0169808,VALID,20.3945,VALID,339,VALID,0.704687,
2001-05-28, 00:52:00,VALID,917.394,VALID,0,VALID,94.7625,VALID,0.0169808,VALID,20.4168,VALID,4,VALID,0.949836,
2001-05-28, 00:53:00,VALID,917.38,VALID,0,VALID,94.6087,VALID,0.0169808,VALID,20.4529,VALID,13,VALID,1.40752,
2001-05-28, 00:54:00,VALID,917.367,VALID,0,VALID,94.4535,VALID,-0.0169808,VALID,20.4658,VALID,2,VALID,1.08708,
2001-05-28, 00:55:00,VALID,917.348,VALID,0,VALID,94.3899,VALID,-0.0849042,VALID,20.4601,VALID,11,VALID,1.1625,
2001-05-28, 00:56:00,VALID,917.333,VALID,0,VALID,94.2857,VALID,-0.0509425,VALID,20.4507,VALID,8,VALID,1.25308,
2001-05-28, 00:57:00,VALID,917.304,VALID,0,VALID,94.3696,VALID,-0.0509425,VALID,20.4219,VALID,4,VALID,0.730058,
2001-05-28, 00:58:00,VALID,917.286,VALID,0,VALID,94.807,VALID,-0.101885,VALID,20.3992,VALID,353,VALID,1.10156,
2001-05-28, 00:59:00,VALID,917.268,VALID,0,VALID,94.9126,VALID,-0.0849042,VALID,20.3828,VALID,10,VALID,1.13081,
2001-05-28, 01:00:00,VALID,917.247,VALID,0,VALID,94.774,VALID,-0.0509425,VALID,20.3694,VALID,354,VALID,0.761161,
2001-05-28, 01:01:00,VALID,917.247,VALID,0,VALID,94.8541,VALID,-0.0679233,VALID,20.3642,VALID,303,VALID,0.443359,
2001-05-28, 01:02:00,VALID,917.233,VALID,0,VALID,95.1287,VALID,-0.101885,VALID,20.3346,VALID,340,VALID,0.458767,
2001-05-28, 01:03:00,VALID,917.205,VALID,0,VALID,95.172,VALID,-0.101885,VALID,20.3349,VALID,15,VALID,1.02062,
2001-05-28, 01:04:00,VALID,917.186,VALID,0,VALID,95.1465,VALID,-0.101885,VALID,20.2827,VALID,12,VALID,1.1248,
2001-05-28, 01:05:00,VALID,917.163,VALID,0,VALID,95.2991,VALID,-0.0679233,VALID,20.2698,VALID,15,VALID,1.33162,
2001-05-28, 01:06:00,VALID,917.142,VALID,0,VALID,95.1745,VALID,-0.0679233,VALID,20.2829,VALID,13,VALID,1.34025,
2001-05-28, 01:07:00,VALID,917.135,VALID,0,VALID,95.0563,VALID,-0.101885,VALID,20.2546,VALID,17,VALID,1.53188,
2001-05-28, 01:08:00,VALID,917.124,VALID,0,VALID,94.9533,VALID,-0.101885,VALID,20.2762,VALID,5,VALID,1.91775,
2001-05-28, 01:09:00,VALID,917.104,VALID,0,VALID,94.5845,VALID,-0.0849042,VALID,20.4189,VALID,14,VALID,1.89379,
2001-05-28, 01:10:00,VALID,917.12,VALID,0,VALID,94.1661,VALID,0,VALID,20.4688,VALID,16,VALID,1.60547,
2001-05-28, 01:11:01,VALID,917.12,VALID,0,VALID,93.936,VALID,0.0169808,VALID,20.4847,VALID,19,VALID,1.6897,
2001-05-28, 01:12:00,VALID,917.133,VALID,0,VALID,93.702,VALID,0,VALID,20.4779,VALID,18,VALID,1.67288,
2001-05-28, 01:13:00,VALID,917.152,VALID,0,VALID,93.646,VALID,0,VALID,20.4752,VALID,15,VALID,1.52893,
2001-05-28, 01:14:00,VALID,917.154,VALID,0,VALID,93.674,VALID,0.0169808,VALID,20.4914,VALID,16,VALID,1.51624,
2001-05-28, 01:15:00,VALID,917.167,VALID,0,VALID,93.6562,VALID,0,VALID,20.4874,VALID,17,VALID,1.42688,
2001-05-28, 01:16:00,VALID,917.157,VALID,0,VALID,93.66,VALID,0.0339617,VALID,20.5202,VALID,7,VALID,1.60477,
2001-05-28, 01:17:00,VALID,917.125,VALID,0,VALID,93.6041,VALID,0,VALID,20.5075,VALID,12,VALID,1.125,
2001-05-28, 01:18:00,VALID,917.125,VALID,0,VALID,93.6906,VALID,0,VALID,20.4849,VALID,9,VALID,0.904605,
2001-05-28, 01:19:00,VALID,917.117,VALID,0,VALID,93.8139,VALID,0,VALID,20.4688,VALID,14,VALID,0.925042,
2001-05-28, 01:20:00,VALID,917.114,VALID,0,VALID,93.7732,VALID,0,VALID,20.4359,VALID,13,VALID,0.62066,
2001-05-28, 01:21:00,VALID,917.086,VALID,0,VALID,93.8215,VALID,0,VALID,20.4039,VALID,11,VALID,0.501519,
2001-05-28, 01:22:00,VALID,917.098,VALID,0,VALID,94.0135,VALID,0,VALID,20.3651,VALID,333,VALID,0.614515,
2001-05-28, 01:23:01,VALID,917.102,VALID,0,VALID,94.3823,VALID,0,VALID,20.3584,VALID,265,VALID,0.440878,
2001-05-28, 01:24:00,VALID,917.085,VALID,0,VALID,94.6722,VALID,0,VALID,20.3455,VALID,250,VALID,0.279687,
2001-05-28, 01:25:00,VALID,917.085,VALID,0,VALID,94.8426,VALID,-0.0339617,VALID,20.347,VALID,250,VALID,0.00357143,
2001-05-28, 01:26:00,VALID,917.061,VALID,0,VALID,94.7333,VALID,-0.0849042,VALID,20.3244,VALID,250,VALID,0,
2001-05-28, 01:27:00,VALID,917.068,VALID,0,VALID,94.7422,VALID,-0.0849042,VALID,20.2959,VALID,289,VALID,0.0899439,
2001-05-28, 01:28:00,VALID,917.06,VALID,0,VALID,94.8286,VALID,-0.0849042,VALID,20.2695,VALID,49,VALID,0.0878906,
2001-05-28, 01:29:00,VALID,917.064,VALID,0,VALID,94.6544,VALID,-0.0679233,VALID,20.2369,VALID,52,VALID,0.000205592,
2001-05-28, 01:30:00,VALID,917.074,VALID,0,VALID,94.5031,VALID,-0.0679233,VALID,20.2019,VALID,136,VALID,0.268159,
2001-05-28, 01:31:00,VALID,917.065,VALID,0,VALID,94.5934,VALID,-0.0849042,VALID,20.154,VALID,160,VALID,0.548478,
2001-05-28, 01:32:01,VALID,917.06,VALID,0,VALID,94.6888,VALID,-0.0679233,VALID,20.1053,VALID,168,VALID,0.579928,
2001-05-28, 01:33:00,VALID,917.062,VALID,0,VALID,94.7295,VALID,-0.0849042,VALID,20.0511,VALID,172,VALID,0.641026,
2001-05-28, 01:34:01,VALID,917.054,VALID,0,VALID,95.0791,VALID,-0.0509425,VALID,19.9758,VALID,169,VALID,0.598437,
2001-05-28, 01:35:00,VALID,917.057,VALID,0,VALID,95.4276,VALID,-0.0849042,VALID,19.9246,VALID,160,VALID,0.524414,
2001-05-28, 01:36:00,VALID,917.058,VALID,0,VALID,95.8001,VALID,-0.0849042,VALID,19.866,VALID,157,VALID,0.563368,
2001-05-28, 01:37:01,VALID,917.037,VALID,0,VALID,96.0494,VALID,-0.0509425,VALID,19.8307,VALID,150,VALID,0.148003,
2001-05-28, 01:38:00,VALID,917.021,VALID,0,VALID,96.3088,VALID,-0.0509425,VALID,19.7817,VALID,139,VALID,0.425887,
2001-05-28, 01:39:01,VALID,917.002,VALID,0,VALID,96.7144,VALID,-0.0849042,VALID,19.7698,VALID,147,VALID,0.523643,
2001-05-28, 01:40:00,VALID,916.991,VALID,0,VALID,97.0082,VALID,-0.0679233,VALID,19.743,VALID,150,VALID,0.553209,
2001-05-28, 01:41:00,VALID,916.958,VALID,0,VALID,97.162,VALID,-0.0509425,VALID,19.7407,VALID,132,VALID,0.328758,
2001-05-28, 01:42:00,VALID,916.937,VALID,0,VALID,97.045,VALID,-0.0679233,VALID,19.702,VALID,117,VALID,0.577902,
2001-05-28, 01:43:00,VALID,916.901,VALID,0,VALID,97.1442,VALID,-0.0509425,VALID,19.6697,VALID,103,VALID,0.861431,
2001-05-28, 01:44:01,VALID,916.883,VALID,0,VALID,97.6923,VALID,-0.0339617,VALID,19.6726,VALID,108,VALID,1.10853,
2001-05-28, 01:45:00,VALID,916.86,VALID,0,VALID,97.7851,VALID,-0.0509425,VALID,19.7077,VALID,116,VALID,1.10595,
2001-05-28, 01:46:00,VALID,916.845,VALID,0,VALID,97.7215,VALID,-0.0339617,VALID,19.7243,VALID,107,VALID,0.794531,
2001-05-28, 01:47:01,VALID,916.838,VALID,0,VALID,97.6707,VALID,-0.0679233,VALID,19.7146,VALID,108,VALID,0.905633,
2001-05-28, 01:48:00,VALID,916.828,VALID,0,VALID,97.8245,VALID,-0.0339617,VALID,19.7181,VALID,106,VALID,1.01192,
2001-05-28, 01:49:00,VALID,916.801,VALID,0,VALID,97.8309,VALID,-0.0849042,VALID,19.7596,VALID,106,VALID,0.87832,
2001-05-28, 01:50:00,VALID,916.783,VALID,0,VALID,97.8017,VALID,-0.0679233,VALID,19.7986,VALID,114,VALID,0.98097,
2001-05-28, 01:51:01,VALID,916.751,VALID,0,VALID,97.466,VALID,-0.0339617,VALID,19.8269,VALID,112,VALID,0.960045,
2001-05-28, 01:52:00,VALID,916.728,VALID,0,VALID,97.1099,VALID,-0.0509425,VALID,19.8105,VALID,118,VALID,0.844531,
2001-05-28, 01:53:00,VALID,916.706,VALID,0,VALID,96.9598,VALID,-0.0509425,VALID,19.8078,VALID,121,VALID,0.866536,
2001-05-28, 01:54:01,VALID,916.679,VALID,0,VALID,96.9064,VALID,-0.0849042,VALID,19.8081,VALID,123,VALID,0.834418,
2001-05-28, 01:55:01,VALID,916.684,VALID,0,VALID,96.9955,VALID,-0.0509425,VALID,19.7887,VALID,129,VALID,0.835737,
2001-05-28, 01:56:00,VALID,916.669,VALID,0,VALID,97.1366,VALID,-0.0339617,VALID,19.8115,VALID,126,VALID,0.797286,
2001-05-28, 01:57:00,VALID,916.68,VALID,0,VALID,96.9103,VALID,-0.0509425,VALID,19.7984,VALID,130,VALID,0.596012,
2001-05-28, 01:58:00,VALID,916.669,VALID,0,VALID,96.7373,VALID,-0.0509425,VALID,19.7693,VALID,130,VALID,0.798353,
2001-05-28, 01:59:00,VALID,916.67,VALID,0,VALID,96.7322,VALID,0,VALID,19.7238,VALID,109,VALID,0.677517,
2001-05-28, 02:00:01,VALID,916.663,VALID,0,VALID,96.9611,VALID,-0.0169808,VALID,19.6953,VALID,113,VALID,0.907517,
2001-05-28, 02:01:00,VALID,916.649,VALID,0,VALID,97.1976,VALID,-0.0509425,VALID,19.6625,VALID,116,VALID,0.891653,
2001-05-28, 02:02:01,VALID,916.636,VALID,0,VALID,97.4431,VALID,-0.0679233,VALID,19.6503,VALID,114,VALID,1.0627,
2001-05-28, 02:03:00,VALID,916.633,VALID,0,VALID,97.5232,VALID,-0.0339617,VALID,19.6048,VALID,104,VALID,0.852364,
2001-05-28, 02:04:00,VALID,916.615,VALID,0,VALID,97.6656,VALID,-0.0679233,VALID,19.5531,VALID,117,VALID,0.803421,
2001-05-28, 02:05:00,VALID,916.167,VALID,0,VALID,97.8182,VALID,-0.0679233,VALID,19.5241,VALID,122,VALID,0.786184,
2001-05-28, 02:06:00,VALID,916.552,VALID,0,VALID,97.8945,VALID,-0.0849042,VALID,19.4952,VALID,131,VALID,0.620793,
2001-05-28, 02:07:00,VALID,916.526,VALID,0,VALID,97.9695,VALID,-0.0679233,VALID,19.4689,VALID,125,VALID,0.847356,
2001-05-28, 02:08:00,VALID,916.472,VALID,0,VALID,98.0471,VALID,0.0339617,VALID,19.4515,VALID,119,VALID,0.855239,
2001-05-28, 02:09:00,VALID,916.447,VALID,0,VALID,98.1971,VALID,0.0509425,VALID,19.4483,VALID,126,VALID,0.754112,
2001-05-28, 02:10:00,VALID,916.434,VALID,0,VALID,98.2709,VALID,0,VALID,19.4555,VALID,126,VALID,0.754645,
2001-05-28, 02:11:00,VALID,916.406,VALID,0,VALID,98.4743,VALID,0,VALID,19.4776,VALID,114,VALID,1.14084,
2001-05-28, 02:12:00,VALID,916.397,VALID,0,VALID,98.4336,VALID,-0.0339617,VALID,19.5039,VALID,102,VALID,0.986762,
2001-05-28, 02:13:00,VALID,916.403,VALID,0,VALID,98.3726,VALID,0.0169808,VALID,19.4843,VALID,103,VALID,0.861637,
2001-05-28, 02:14:01,VALID,916.417,VALID,0,VALID,98.4031,VALID,-0.0169808,VALID,19.4712,VALID,91,VALID,0.735008,
2001-05-28, 02:15:00,VALID,916.419,VALID,0,VALID,98.3802,VALID,-0.0169808,VALID,19.488,VALID,100,VALID,0.964732,
2001-05-28, 02:16:00,VALID,916.422,VALID,0,VALID,98.2938,VALID,-0.0169808,VALID,19.4684,VALID,96,VALID,0.875893,
2001-05-28, 02:17:00,VALID,916.431,VALID,0,VALID,98.2798,VALID,-0.0169808,VALID,19.4423,VALID,109,VALID,0.662829,
2001-05-28, 02:18:01,VALID,916.426,VALID,0,VALID,98.2048,VALID,-0.0169808,VALID,19.4165,VALID,126,VALID,0.649038,
2001-05-28, 02:19:00,VALID,916.439,VALID,0,VALID,98.2225,VALID,-0.0169808,VALID,19.4038,VALID,142,VALID,0.877344,
2001-05-28, 02:20:00,VALID,916.44,VALID,0,VALID,98.3853,VALID,-0.0169808,VALID,19.4036,VALID,143,VALID,1.21484,
2001-05-28, 02:21:00,VALID,916.435,VALID,0,VALID,98.4451,VALID,0,VALID,19.4359,VALID,151,VALID,1.18666,
2001-05-28, 02:22:00,VALID,916.435,VALID,0,VALID,98.4591,VALID,0,VALID,19.4195,VALID,140,VALID,1.24639,
2001-05-28, 02:23:01,VALID,916.437,VALID,0,VALID,98.5099,VALID,0,VALID,19.4003,VALID,142,VALID,1.37159,
2001-05-28, 02:24:01,VALID,916.44,VALID,0,VALID,98.5761,VALID,0,VALID,19.384,VALID,119,VALID,0.790465,
2001-05-28, 02:25:01,VALID,916.442,VALID,0,VALID,98.6714,VALID,0,VALID,19.4103,VALID,101,VALID,0.972321,
2001-05-28, 02:26:00,VALID,916.426,VALID,0,VALID,98.7757,VALID,-0.0169808,VALID,19.4297,VALID,96,VALID,0.998438,
2001-05-28, 02:27:00,VALID,916.406,VALID,0,VALID,98.7884,VALID,0,VALID,19.4292,VALID,90,VALID,0.833984,
2001-05-28, 02:28:01,VALID,916.365,VALID,0,VALID,98.8647,VALID,0,VALID,19.4421,VALID,89,VALID,0.845052,
2001-05-28, 02:29:00,VALID,916.344,VALID,0,VALID,98.8952,VALID,0.0169808,VALID,19.4712,VALID,97,VALID,0.912796,
2001-05-28, 02:30:01,VALID,916.34,VALID,0,VALID,98.9079,VALID,0,VALID,19.4779,VALID,98,VALID,0.799753,
2001-05-28, 02:31:00,VALID,916.338,VALID,0,VALID,98.8965,VALID,-0.0169808,VALID,19.4712,VALID,112,VALID,0.631757,
2001-05-28, 02:32:00,VALID,916.345,VALID,0,VALID,98.88,VALID,0,VALID,19.4781,VALID,115,VALID,0.709248,
2001-05-28, 02:33:00,VALID,916.357,VALID,0,VALID,98.8596,VALID,0,VALID,19.4485,VALID,82,VALID,0.514509,
2001-05-28, 02:34:00,VALID,916.392,VALID,0,VALID,98.8227,VALID,-0.0169808,VALID,19.423,VALID,114,VALID,0.234786,
2001-05-28, 02:35:01,VALID,916.432,VALID,0,VALID,98.8571,VALID,-0.0169808,VALID,19.4058,VALID,119,VALID,0.316301,
2001-05-28, 02:36:00,VALID,916.467,VALID,0,VALID,98.8762,VALID,0,VALID,19.4292,VALID,141,VALID,0.259337,
2001-05-28, 02:37:00,VALID,916.492,VALID,0,VALID,98.88,VALID,-0.0169808,VALID,19.4456,VALID,146,VALID,0.339648,
2001-05-28, 02:38:01,VALID,916.523,VALID,0,VALID,98.8456,VALID,0,VALID,19.452,VALID,168,VALID,0.58676,
2001-05-28, 02:39:00,VALID,916.551,VALID,0,VALID,98.824,VALID,0,VALID,19.4326,VALID,160,VALID,0.60773,
2001-05-28, 02:40:00,VALID,916.551,VALID,0,VALID,98.8113,VALID,0,VALID,19.455,VALID,154,VALID,0.644922,
2001-05-28, 02:41:00,VALID,916.546,VALID,0,VALID,98.8011,VALID,0,VALID,19.4548,VALID,177,VALID,0.470353,
2001-05-28, 02:42:01,VALID,916.553,VALID,0,VALID,98.7554,VALID,0.0169808,VALID,19.4682,VALID,160,VALID,0.506027,
2001-05-28, 02:43:00,VALID,916.569,VALID,0,VALID,98.7299,VALID,0.0169808,VALID,19.4523,VALID,173,VALID,0.377344,
2001-05-28, 02:44:00,VALID,916.594,VALID,0,VALID,98.7058,VALID,-0.0169808,VALID,19.4453,VALID,197,VALID,0.416016,
2001-05-28, 02:45:01,VALID,916.618,VALID,0,VALID,98.66,VALID,0,VALID,19.4227,VALID,227,VALID,0.563585,
2001-05-28, 02:46:01,VALID,916.643,VALID,0,VALID,98.7045,VALID,0.0339617,VALID,19.4386,VALID,224,VALID,0.627404,
2001-05-28, 02:47:00,VALID,916.645,VALID,0,VALID,98.7248,VALID,0.0169808,VALID,19.4483,VALID,207,VALID,0.685033,
2001-05-28, 02:48:00,VALID,916.637,VALID,0,VALID,98.693,VALID,0,VALID,19.4453,VALID,204,VALID,0.759046,
2001-05-28, 02:49:00,VALID,916.639,VALID,0,VALID,98.6752,VALID,0,VALID,19.4421,VALID,171,VALID,0.359797,
2001-05-28, 02:50:00,VALID,916.619,VALID,0,VALID,98.5837,VALID,0,VALID,19.4066,VALID,153,VALID,0.108941,
2001-05-28, 02:51:01,VALID,916.622,VALID,0,VALID,98.5532,VALID,0,VALID,19.3745,VALID,143,VALID,0.356419,
2001-05-28, 02:52:01,VALID,916.607,VALID,0,VALID,98.5799,VALID,-0.0339617,VALID,19.3618,VALID,189,VALID,0.374178,
2001-05-28, 02:53:01,VALID,916.61,VALID,0,VALID,98.5621,VALID,0,VALID,19.342,VALID,167,VALID,0.352965,
2001-05-28, 02:54:01,VALID,916.605,VALID,0,VALID,98.5722,VALID,0,VALID,19.3387,VALID,156,VALID,0.386619,
2001-05-28, 02:55:00,VALID,916.601,VALID,0,VALID,98.5977,VALID,-0.0509425,VALID,19.333,VALID,162,VALID,0.322213,
2001-05-28, 02:56:00,VALID,916.602,VALID,0,VALID,98.6295,VALID,0,VALID,19.3261,VALID,162,VALID,0.0896382,
2001-05-28, 02:57:00,VALID,916.589,VALID,0,VALID,98.6307,VALID,-0.0169808,VALID,19.333,VALID,141,VALID,0,
2001-05-28, 02:58:00,VALID,916.602,VALID,0,VALID,98.6218,VALID,0,VALID,19.3231,VALID,130,VALID,0,
2001-05-28, 02:59:01,VALID,916.605,VALID,0,VALID,98.6371,VALID,-0.0169808,VALID,19.3231,VALID,124,VALID,0,
2001-05-28, 03:00:00,VALID,916.604,VALID,0,VALID,98.6752,VALID,0,VALID,19.3129,VALID,137,VALID,0,
2001-05-28, 03:01:01,VALID,916.609,VALID,0,VALID,98.721,VALID,-0.0169808,VALID,19.3228,VALID,140,VALID,0,
2001-05-28, 03:02:01,VALID,916.602,VALID,0,VALID,98.7426,VALID,-0.0169808,VALID,19.3355,VALID,141,VALID,0.250651,
2001-05-28, 03:03:01,VALID,916.593,VALID,0,VALID,98.735,VALID,0,VALID,19.3291,VALID,135,VALID,0.317274,
2001-05-28, 03:04:01,VALID,916.584,VALID,0,VALID,98.7325,VALID,0,VALID,19.3358,VALID,135,VALID,0.404605,
2001-05-28, 03:05:01,VALID,916.6,VALID,0,VALID,98.796,VALID,-0.0169808,VALID,19.3459,VALID,134,VALID,0.497466,
2001-05-28, 03:06:01,VALID,916.6,VALID,0,VALID,98.8189,VALID,-0.0169808,VALID,19.3554,VALID,132,VALID,0.311607,
2001-05-28, 03:07:01,VALID,916.604,VALID,0,VALID,98.7236,VALID,-0.0169808,VALID,19.3261,VALID,109,VALID,0.028125,
2001-05-28, 03:08:01,VALID,916.628,VALID,0,VALID,98.6765,VALID,-0.0169808,VALID,19.2938,VALID,86,VALID,0,
2001-05-28, 03:09:01,VALID,916.67,VALID,0,VALID,98.6613,VALID,0,VALID,19.2746,VALID,86,VALID,0,
2001-05-28, 03:10:01,VALID,916.712,VALID,0,VALID,98.6269,VALID,0,VALID,19.2394,VALID,86,VALID,0,
2001-05-28, 03:11:01,VALID,916.74,VALID,0,VALID,98.6422,VALID,0,VALID,19.2195,VALID,128,VALID,0.327097,
2001-05-28, 03:12:01,VALID,916.766,VALID,0,VALID,98.6384,VALID,0,VALID,19.22,VALID,146,VALID,0.54962,
2001-05-28, 03:13:01,VALID,916.79,VALID,0,VALID,98.7236,VALID,0,VALID,19.2389,VALID,153,VALID,0.813101,
2001-05-28, 03:14:01,VALID,916.805,VALID,0,VALID,98.7592,VALID,0,VALID,19.2687,VALID,131,VALID,0.865184,
2001-05-28, 03:15:01,VALID,916.809,VALID,0,VALID,98.7948,VALID,0,VALID,19.2813,VALID,132,VALID,0.933293,
2001-05-28, 03:16:01,VALID,916.834,VALID,0,VALID,98.8278,VALID,0.0169808,VALID,19.3032,VALID,120,VALID,0.84308,
2001-05-28, 03:17:01,VALID,916.844,VALID,0,VALID,98.8278,VALID,0.0169808,VALID,19.3129,VALID,124,VALID,0.718945,
2001-05-28, 03:18:01,VALID,916.867,VALID,0,VALID,98.8711,VALID,0,VALID,19.3487,VALID,121,VALID,0.841363,
2001-05-28, 03:19:01,VALID,916.876,VALID,0,VALID,98.894,VALID,0,VALID,19.3877,VALID,116,VALID,0.92079,
2001-05-28, 03:20:01,VALID,916.89,VALID,0,VALID,98.9079,VALID,0,VALID,19.4334,VALID,108,VALID,1.08615,
2001-05-28, 03:21:01,VALID,916.892,VALID,0,VALID,98.8825,VALID,0,VALID,19.4426,VALID,97,VALID,1.07442,
2001-05-28, 03:22:01,VALID,916.886,VALID,0,VALID,98.8316,VALID,0.0169808,VALID,19.4557,VALID,97,VALID,1.23965,
2001-05-28, 03:23:01,VALID,916.868,VALID,0,VALID,98.8177,VALID,0,VALID,19.452,VALID,102,VALID,1.28526,
2001-05-28, 03:24:00,VALID,916.848,VALID,0,VALID,98.8062,VALID,0,VALID,19.4813,VALID,99,VALID,1.03415,
2001-05-28, 03:25:00,VALID,916.828,VALID,0,VALID,98.7833,VALID,-0.0849042,VALID,19.4823,VALID,92,VALID,0.917146,
2001-05-28, 03:26:00,VALID,916.796,VALID,0,VALID,98.7274,VALID,-0.101885,VALID,19.4664,VALID,88,VALID,0.761619,
2001-05-28, 03:27:00,VALID,916.772,VALID,0,VALID,98.735,VALID,-0.101885,VALID,19.4637,VALID,105,VALID,1.0787,
2001-05-28, 03:28:00,VALID,916.758,VALID,0,VALID,98.7643,VALID,-0.101885,VALID,19.4726,VALID,103,VALID,0.829492,
2001-05-28, 03:29:00,VALID,916.732,VALID,0,VALID,98.7439,VALID,-0.101885,VALID,19.4699,VALID,94,VALID,0.843133,
2001-05-28, 03:30:00,VALID,916.709,VALID,0,VALID,98.7236,VALID,-0.101885,VALID,19.4565,VALID,86,VALID,0.598684,
2001-05-28, 03:31:00,VALID,916.663,VALID,0,VALID,98.7172,VALID,-0.118866,VALID,19.4535,VALID,92,VALID,0.796875,
2001-05-28, 03:32:00,VALID,916.636,VALID,0,VALID,98.7019,VALID,-0.101885,VALID,19.4406,VALID,88,VALID,0.657853,
2001-05-28, 03:33:00,VALID,916.579,VALID,0,VALID,98.6918,VALID,-0.101885,VALID,19.444,VALID,81,VALID,0.461161,
2001-05-28, 03:34:00,VALID,916.54,VALID,0,VALID,98.6841,VALID,-0.101885,VALID,19.4314,VALID,79,VALID,0.933984,
2001-05-28, 03:35:00,VALID,916.497,VALID,0,VALID,98.6206,VALID,-0.101885,VALID,19.4085,VALID,62,VALID,0.895616,